Location: ??? ???
(33.4974°N, 35.4618°E)
Time: 11:48:04
(UTC+00:00)

H-2A R/B - Pass Details

Date: 29 October 2020
Orbit: 733 x 837 km, 98.2° (Epoch: 26 November)

Event Time Altitude Azimuth Distance (km) Brightness Sun altitude
Exits shadow 17:56:29 15° 233° (SW) 2,098 4.6 -39.6°
Maximum altitude 17:58:59 20° 266° (W) 1,836 4.4 -40.1°
Drops below altitude 10° 18:02:53 10° 312° (NW) 2,451 5.1 -40.9°
Sets 18:05:55 0° 329° (NNW) 3,391 5.8 -41.5°
